DW7061 Weather Reports


Display with metric or nautical units.
time (UTC)temp
F
wind
direction
speed
MPH
gust
MPH
rain 1hr
in
rain 24hr
in
rain mn
in
humidity
%
barometer
mb
20260502200016 50 0.0 2.0 0.00 0.00 0.00 83 1008.8
20260502195016 50 0.0 2.0 0.00 0.00 0.00 84 1008.8
20260502194016 50 0.0 2.0 0.00 0.00 0.00 84 1008.8
20260502193016 49 0.0 2.0 0.00 0.00 0.00 87 1009.0
20260502192016 48 0.0 0.0 0.00 0.00 0.00 91 1009.1
20260502191016 48 0.0 0.0 0.00 0.00 0.00 90 1009.1
20260502190017 48 0.0 0.0 0.00 0.00 0.00 88 1009.2
20260502185016 48 0.0 1.0 0.00 0.00 0.00 89 1009.3
20260502184016 48 0.0 2.0 0.00 0.00 0.00 89 1009.3
20260502183037 48 0.0 1.0 0.00 0.00 0.00 91 1009.2
20260502182016 47 0.0 0.0 0.00 0.00 0.00 90 1009.3
20260502181016 48 0.0 1.0 0.00 0.00 0.00 90 1009.4
20260502164016 47 0.0 1.0 0.00 0.00 0.00 94 1009.6
20260502163057 46 0.0 0.0 0.00 0.00 0.00 93 1009.9
20260502162016 46 0.0 3.0 0.00 0.00 0.00 93 1010.0
20260502161016 45 0.0 1.0 0.00 0.00 0.00 93 1009.8
20260502152017 51 248 1.0 5.0 0.00 0.00 0.00 76 1010.1
20260502151016 50 248 1.0 2.0 0.00 0.00 0.00 82 1010.1
20260502123016 44 0.0 0.0 0.00 0.00 0.00 95 1010.5
20260502122015 44 0.0 0.0 0.00 0.00 0.00 95 1010.6
20260502121015 43 0.0 2.0 0.00 0.00 0.00 95 1010.5
20260502115017 43 0.0 0.0 0.00 0.00 0.00 95 1010.8
20260502114017 43 0.0 0.0 0.00 0.00 0.00 95 1010.9
20260502113018 43 0.0 0.0 0.00 0.00 0.00 95 1010.9
20260502112038 43 0.0 0.0 0.00 0.00 0.00 95 1010.8
20260502111018 43 0.0 0.0 0.00 0.00 0.00 95 1010.9
20260502110058 42 0.0 0.0 0.00 0.00 0.00 95 1010.6
20260502105018 42 0.0 0.0 0.00 0.00 0.00 95 1010.6
20260502104018 42 0.0 0.0 0.00 0.00 0.00 95 1010.9
20260502103017 42 0.0 0.0 0.00 0.00 0.00 95 1010.9
20260502102018 42 0.0 0.0 0.00 0.00 0.00 94 1010.5
20260502101017 42 0.0 0.0 0.00 0.00 0.00 94 1010.1
20260502091058 42 0.0 0.0 0.00 0.00 0.00 94 1010.5
20260502071039 43 0.0 0.0 0.00 0.00 0.00 89 1010.5
20260502070018 44 0.0 0.0 0.00 0.00 0.00 85 1010.5
20260502065017 44 0.0 0.0 0.00 0.00 0.00 82 1010.5
20260502064017 44 0.0 0.0 0.00 0.00 0.00 83 1010.4
20260502063016 43 0.0 0.0 0.00 0.00 0.00 85 1010.3
20260502062038 43 0.0 0.0 0.00 0.00 0.00 86 1010.4
20260502061018 43 0.0 0.0 0.00 0.00 0.00 87 1010.4
20260502060017 44 0.0 0.0 0.00 0.00 0.00 88 1010.7
20260502055017 44 0.0 0.0 0.00 0.00 0.00 86 1010.7
20260502054017 46 0.0 0.0 0.00 0.00 0.00 81 1010.9
20260502053018 47 0.0 2.0 0.00 0.00 0.00 74 1011.2
20260502052018 48 0.0 0.0 0.00 0.00 0.00 63 1011.3
20260502051017 48 0.0 0.0 0.00 0.00 0.00 59 1010.9
20260502050017 48 0.0 0.0 0.00 0.00 0.00 59 1010.8
20260502045018 48 0.0 0.0 0.00 0.00 0.00 58 1010.6
20260502044018 48 0.0 0.0 0.00 0.00 0.00 56 1010.8
20260502043017 48 0.0 0.0 0.00 0.00 0.00 56 1010.7
20260502042017 48 0.0 0.0 0.00 0.00 0.00 57 1010.7
20260502041016 48 0.0 0.0 0.00 0.00 0.00 57 1010.6
20260502040039 48 0.0 0.0 0.00 0.00 0.00 56 1010.8
20260502035016 48 0.0 0.0 0.00 0.00 0.00 56 1010.7
20260502034016 48 0.0 0.0 0.00 0.00 0.00 56 1010.6
20260502033016 49 0.0 0.0 0.00 0.00 0.00 56 1010.8
20260502032016 49 0.0 0.0 0.00 0.00 0.00 54 1010.9
20260502031017 49 0.0 0.0 0.00 0.00 0.00 53 1010.8
20260502030036 49 0.0 0.0 0.00 0.00 0.00 53 1010.7
20260502025016 49 0.0 0.0 0.00 0.00 0.00 53 1010.6
20260502024017 49 0.0 0.0 0.00 0.00 0.00 53 1010.6
20260502023036 49 0.0 0.0 0.00 0.00 0.00 52 1010.5
20260502022017 49 0.0 0.0 0.00 0.00 0.00 52 1010.5
20260502021016 49 0.0 0.0 0.00 0.00 0.00 52 1010.3
20260502020016 50 0.0 0.0 0.00 0.00 0.00 51 1010.4
20260502015016 50 0.0 0.0 0.00 0.00 0.00 50 1010.4
20260502014017 50 0.0 0.0 0.00 0.00 0.00 50 1010.4
20260502013016 50 0.0 0.0 0.00 0.00 0.00 49 1010.2
20260502012017 50 0.0 0.0 0.00 0.00 0.00 50 1010.1
20260502011016 50 0.0 0.0 0.00 0.00 0.00 49 1010.0
20260502010016 50 0.0 0.0 0.00 0.00 0.00 49 1009.9
20260502005016 50 0.0 0.0 0.00 0.00 0.00 49 1009.8
20260502004017 50 0.0 0.0 0.00 0.00 0.00 48 1009.7
20260502003037 50 0.0 0.0 0.00 0.00 0.00 49 1009.6
20260502002016 50 0.0 0.0 0.00 0.00 0.00 49 1009.4
20260502001037 50 0.0 0.0 0.00 0.00 0.00 51 1009.3
20260502000016 51 0.0 0.0 0.00 0.00 0.00 50 1009.3
20260501235016 52 0.0 0.0 0.00 0.00 0.00 46 1009.1
20260501234016 54 0.0 0.0 0.00 0.00 0.00 46 1009.2
20260501233016 55 0.0 1.0 0.00 0.00 0.00 44 1009.0
20260501232016 56 0.0 1.0 0.00 0.00 0.00 40 1009.0
20260501231017 56 0.0 0.0 0.00 0.00 0.00 40 1008.9
20260501230056 56 0.0 2.0 0.00 0.00 0.00 38 1008.8
20260501225016 56 0.0 3.0 0.00 0.00 0.00 37 1008.7
20260501224037 57 248 1.0 4.0 0.00 0.00 0.00 37 1008.6
20260501223016 57 248 1.0 4.0 0.00 0.00 0.00 38 1008.4
20260501222016 57 248 2.0 7.0 0.00 0.00 0.00 36 1008.4
20260501221017 58 248 3.0 7.0 0.00 0.00 0.00 35 1008.4
20260501220016 58 248 1.0 4.0 0.00 0.00 0.00 35 1008.5
20260501215037 59 45 1.0 4.0 0.00 0.00 0.00 35 1008.5
20260501214016 59 225 1.0 6.0 0.00 0.00 0.00 34 1008.5
20260501213016 59 0.0 2.0 0.00 0.00 0.00 35 1008.4
20260501212016 59 248 2.0 4.0 0.00 0.00 0.00 34 1008.4
20260501211016 60 225 2.0 4.0 0.00 0.00 0.00 33 1008.3
20260501210056 60 248 1.0 3.0 0.00 0.00 0.00 35 1008.5
20260501205016 60 270 1.0 6.0 0.00 0.00 0.00 34 1008.3
20260501204056 59 248 2.0 6.0 0.00 0.00 0.00 36 1008.4
20260501203017 59 248 2.0 7.0 0.00 0.00 0.00 36 1008.4
20260501202017 59 0.0 3.0 0.00 0.00 0.00 37 1008.3
20260501201016 59 113 1.0 4.0 0.00 0.00 0.00 38 1008.5